Regional Weather Roundup
Issued by NWS

Home | Current Version | Previous Version | Text Only | Print | Product List | Glossary On
Versions: 1 2 3 4 5 6 7 8 9 10 11 12 13 14 15 16 17 18 19 20 21 22 23 24 25 26 27 28 29 30 31 32 33 34 35 36 37 38 39 40 41 42 43 44 45 46 47 48 49 50
000
ASUS45 KABQ 261310
RWRNM
NEW MEXICO REGIONAL WEATHER ROUNDUP
NATIONAL WEATHER SERVICE ALBUQUERQUE NM
700 AM MDT MON JUN 26 2017

NOTE: "FAIR" MEANS FEW OR NO CLOUDS BELOW 12,000 FEET AGL WITH NO
       SIGNIFICANT WEATHER OR OBSTRUCTIONS TO VISION.

      THIS PRODUCT IS RELEASED AS TWO VERSIONS.  ONE VERSION NEAR
      THE TOP OF THE HOUR CONTAINING PRELIMINARY DATA FROM ALBUQUERQUE
      AND OTHER STATIONS.  A FINAL VERSION WITH ADDITIONAL DATA IS
      ISSUED ABOUT 10 MINUTES AFTER THE HOUR.

NMZ501-503-504-510>518-261400-
NORTHWEST PLATEAU/NORTHCENTRAL MOUNTAINS

CITY           SKY/WX    TMP DP  RH WIND       PRES   REMARKS
FARMINGTON     FAIR      67  46  47 E9        30.26R
LOS ALAMOS     FAIR      56  50  80 SW8       30.44R
SANTA FE       FAIR      59  52  77 SE10      30.38R
TAOS           FAIR      54  43  66 CALM      30.45R
ANGEL FIRE     CLOUDY    47  46  97 CALM      30.51S FOG

$$
NMZ402-403-502-505>509-261400-
WESTCENTRAL MOUNTAINS/SOUTHWEST MOUNTAINS

CITY           SKY/WX    TMP DP  RH WIND       PRES   REMARKS
GALLUP         FAIR      60  44  55 CALM      30.33R
GRANTS         FAIR      60  51  73 S9        30.37S
SILVER CITY    FAIR      64  56  76 N7        30.27S

$$
NMZ407-409-411-412-261400-
SOUTHERN DESERTS

CITY           SKY/WX    TMP DP  RH WIND       PRES   REMARKS
DEMING         FAIR      68  61  78 CALM      30.19S
LAS CRUCES     FAIR      68  60  75 CALM      30.24R
HOLLOMAN AFB   FAIR      64  64 100 NE3       30.25R
ALAMOGORDO       N/A     64  63  94 CALM      30.25R
T OR C         FAIR      67  55  65 N3        30.24R

$$
NMZ519>523-261400-
CENTRAL VALLEYS/CENTRAL HIGHLANDS

CITY           SKY/WX    TMP DP  RH WIND       PRES   REMARKS
ALBUQUERQUE    FAIR      65  54  67 N6        30.31R
DOUBLE EAGLE   PTSUNNY   61  52  72 N9        30.34S
MORIARTY ARPT  FAIR      52  52 100 CALM      30.40R FOG
CLINES CORNERS PTSUNNY   54  52  93 SE9       30.43R
BELEN          FAIR      64  54  71 S3        30.30R
SOCORRO        FAIR      64  57  76 CALM      30.27R

$$
NMZ524>526-539-540-261400-
SOUTHCENTRAL MOUNTAINS

CITY           SKY/WX    TMP DP  RH WIND       PRES   REMARKS
RUIDOSO        FAIR      54  54 100 CALM      30.43S

$$
NMZ527>531-261400-
NORTHEAST HIGHLANDS/NORTHEAST PLAINS

CITY           SKY/WX    TMP DP  RH WIND       PRES   REMARKS
LAS VEGAS      FAIR      54  52  93 S7        30.42S
RATON          CLOUDY    53  53 100 CALM      30.40S FOG
CLAYTON        CLOUDY    58  58 100 SW15      30.32F

$$
NMZ532>537-261400-
EASTCENTRAL PLAINS

CITY           SKY/WX    TMP DP  RH WIND       PRES   REMARKS
SANTA ROSA     FAIR      61  56  85 S6        30.33S
TUCUMCARI      FAIR      62  60  93 W5        30.29S
CANNON AFB     FAIR      59  59 100 CALM      30.32S
CLOVIS AIRPORT FAIR      59  56  89 CALM      30.31R

$$
NMZ028-029-538-261400-
SOUTHEAST PLAINS

CITY           SKY/WX    TMP DP  RH WIND       PRES   REMARKS
ROSWELL        FAIR      64  60  87 NE6       30.27S
ARTESIA        PTSUNNY   66  63  88 SE6       30.27R
CARLSBAD       CLOUDY    66  64  93 SW3       30.24R
HOBBS          PTSUNNY   59  59 100 N12       30.26R


$$




USA.gov is the U.S. government's official web portal to all federal, state and local government web resources and services.